Regional Weather Roundup
Issued by NWS

Home | Current Version | Previous Version | Graphics & Text | Print | Product List | Glossary On
Versions: 1 2 3 4 5 6 7 8 9 10 11 12 13 14 15 16 17 18 19 20 21 22 23 24 25 26 27 28 29 30 31 32 33 34 35 36 37 38 39 40 41 42 43 44 45 46 47 48 49 50
000
ASUS43 KMKX 291728
RWRWI

WISCONSIN REGIONAL WEATHER ROUNDUP
NATIONAL WEATHER SERVICE MILWAUKEE/SULLIVAN WI
1200 PM CDT FRI MAY 29 2015

NOTE: "FAIR" INDICATES FEW OR NO CLOUDS BELOW 12,000 FEET WITH NO
SIGNIFICANT WEATHER AND/OR OBSTRUCTIONS TO VISIBILITY.

WIZ001-002-006>008-014>016-023>028-291800-
NORTHWEST WISCONSIN

CITY           SKY/WX    TMP DP  RH WIND       PRES   REMARKS
SUPERIOR ARPT  CLOUDY    67  58  72 W5        29.88F
ASHLAND        CLOUDY    68  63  84 SW9       29.88S
HAYWARD        CLOUDY    67  62  84 SW6       29.90S
SIREN          CLOUDY    68  63  82 CALM      29.90S
CUMBERLAND     CLOUDY    66  63  88 CALM      29.91F
RICE LAKE      CLOUDY    67  63  87 CALM      29.91F
CHETEK         CLOUDY    67  65  91 CALM      29.90F
LADYSMITH      CLOUDY    68  63  85 SW7       29.93S
EAU CLAIRE     CLOUDY    70  64  81 SW7       29.89F
MENOMONIE      CLOUDY    69  65  86 S6        29.90S
NEW RICHMOND   CLOUDY    69  66  88 SW5       29.90S
OSCEOLA        CLOUDY    70  68  95 SW5       29.91F
$$

WIZ003>005-009-010-017-018-291800-
NORTH CENTRAL WISCONSIN

CITY           SKY/WX    TMP DP  RH WIND       PRES   REMARKS
MANITOWISH WTR CLOUDY    68  62  80 SW9       29.90F
ARBOR VITAE    CLOUDY    69  65  88 SW9       29.91F
WOODRUFF       CLOUDY    69  65  88 SW9       29.91F
RHINELANDER    CLOUDY    71  60  68 SW15G22   29.93S
EAGLE RIVER    CLOUDY    69  58  65 SW9       29.91S
LAND O LAKES   CLOUDY    70  59  66 SW8       29.91F
PHILLIPS       CLOUDY    66  63  88 SW8       29.91F
TOMAHAWK       LGT RAIN  68  61  80 S5        29.93S
MEDFORD        CLOUDY    66  62  86 SW8       29.93F
MERRILL        CLOUDY    70  63  78 SW9       29.94F
$$

WIZ029-030-035-036-043>047-291800-
CENTRAL WISCONSIN

CITY           SKY/WX    TMP DP  RH WIND       PRES   REMARKS
WAUSAU         PTSUNNY   73  62  68 SW12      29.92F
MOSINEE        PTSUNNY   72  64  78 S8G16     29.95F
MARSHFIELD     PTSUNNY   73  63  70 S12       29.93F
STEVENS POINT  CLOUDY    73  61  68 S13       29.94F
WAUPACA        CLOUDY    74  67  76 SW9       29.96F
WAUTOMA        CLOUDY    74  69  84 VRB7      29.96F
WISC RAPIDS    CLOUDY    74  62  66 SW12      29.95F
CAMP DOUGLAS   CLOUDY    73  70  88 S5        29.93F
$$

WIZ011>013-019>022-031-037>040-048>050-291800-
NORTHEAST WISCONSIN

CITY           SKY/WX    TMP DP  RH WIND       PRES   REMARKS
ANTIGO         CLOUDY    71  63  75 SW13      29.94F
SHAWANO        CLOUDY    71  63  75 S6        29.95F
OCONTO         CLOUDY    71  66  85 SW7       29.94F
STURGEON BAY   CLOUDY    66  61  82 SE9       29.99F
GREEN BAY      CLOUDY    73  65  75 SW10      29.96F
MANITOWOC      PTSUNNY   68  60  75 SE8       29.99F
APPLETON       CLOUDY    72  63  73 S12       29.97F
CLINTONVILLE   CLOUDY    70  63  78 S10       29.95F
OSHKOSH        CLOUDY    75  64  68 S10       29.96F
$$

WIZ032>034-041-042-053>061-291800-
SOUTHWEST WISCONSIN

CITY           SKY/WX    TMP DP  RH WIND       PRES   REMARKS
LA CROSSE      CLOUDY    75  64  68 S10       29.91F
SPARTA         CLOUDY    74  61  63 SW9       29.93F
VIROQUA        CLOUDY    75  63  64 SW8       29.95S
BOSCOBEL       CLOUDY    76  64  66 S5        29.94F
PRAIRIE DU CHI PTSUNNY   75  63  65 SW6       29.94S
PLATTEVILLE    CLOUDY    74  69  83 S10       29.95F
$$

WIZ056-057-062-063-064-067-068-291800-
SOUTH CENTRAL WISCONSIN

CITY           SKY/WX    TMP DP  RH WIND       PRES   REMARKS
REEDSBURG      CLOUDY    73  65  76 S6        29.94F
BARABOO/DELLS  CLOUDY    73  64  75 S3        29.95F
LONE ROCK      CLOUDY    74  65  73 W5        29.95F
MINERAL POINT  CLOUDY    73  68  83 S9        29.96F
MADISON        CLOUDY    77  65  66 S12       29.95F
MIDDLETON      PTSUNNY   77  65  68 S7        29.97S
WATERTOWN      PTSUNNY  N/A N/A N/A S12       29.96F
MONROE         PTSUNNY   72  64  78 S18       29.97F
JANESVILLE     RAIN      75  66  73 S14       29.97F
$$

WIZ051-052-058>065-066-070>072-291800-
SOUTHEAST WISCONSIN

CITY           SKY/WX    TMP DP  RH WIND       PRES   REMARKS
MILWAUKEE      CLOUDY    77  64  64 S12G20    29.98F
WAUKESHA       LGT RAIN  72  66  83 SW12      30.00F
MILWAUKEE/TIMM PTSUNNY   79  61  53 S15       29.99F HX  80
RACINE         CLOUDY    72  63  73 S14       30.01F HAZE
BURLINGTON     RAIN      72  65  80 S14G21    30.00R
KENOSHA        CLOUDY    79  66  64 SW8       30.00F HX  81
FOND DU LAC    CLOUDY    77  65  66 S12       29.96F
SHEBOYGAN      PTSUNNY   74  66  76 SE8       29.98F
WEST BEND      PTSUNNY   79  63  57 S9G16     29.98F HX  80
JUNEAU         CLOUDY    76  65  67 S16G24    29.98F
$$

LSZ147-162-291800-
LAKE SUPERIOR

STATION/POSITION TIME  TEMP    WIND        PRES    WAVE
                       AIR SEA DIR/SP/G            HT/PER
                 (UTC) (F)     (DEG/KT/KT) (MB)    (FT/S)
W MID LAKE BUOY  1650   48 37  220/  8/ 12   N/A     1
DEVILS ISLAND    1700   47     200/  9/ 11   N/A
PORT WING        1640   46     320/  6/  7   N/A
SAXON HARBOR     1640   67     210/  4/  9   N/A
$$

LMZ867-665-643>646-291800-
LAKE MICHIGAN

STATION/POSITION TIME  TEMP    WIND        PRES    WAVE
                       AIR SEA DIR/SP/G            HT/PER
                 (UTC) (F)     (DEG/KT/KT) (MB)    (FT/S)
CHAMBERS ISLAND  1600   64     150/  4/  9   N/A
N MID LAKE BUOY  1650   42 37  190/  8/ 10   N/A     1/ 3
NORTHPORT PIER   1500   55     170/  6/ 10   N/A
SISTER BAY       1618   56     140/ 12/ 16   N/A
ALGOMA LAKESHORE 1538          170/  1/  3   N/A
KEWAUNEE LAKESHO 1700   49     180/ 11/ 13   N/A
SHEBOYGAN LAKESH 1700   52     160/ 15/ 16   N/A
PORT WASHINGTON  1640   58     140/  2/  3   N/A
ATWATER BUOY     1700   56     150/ 12/ 14   N/A
MILWAUKEE LAKESH 1700   56     130/ 12/ 14   N/A
S MID LAKE BUOY  1650   47 38  170/ 10/ 10   N/A     1
KENOSHA   LAKESH 1600   59     180/ 11/ 14   N/A
$$

TC  - TEMPERATURE IN CELSIUS
VSB - VISIBILITY IN STATUTE MILES
WCI - WIND CHILL INDEX
HX  - HEAT INDEX




USA.gov is the U.S. government's official web portal to all federal, state and local government web resources and services.